ECHOSTAR 17

Last updated on Mon Oct 20 2025 00:02:47 GMT+0000 (Coordinated Universal Time)

1 38551U 12035A 25292.03201617 .00000000 00000+0 00000+0 0 9991 2 38551 0.0181 213.1865 0001974 345.0760 93.9175 1.00269892 48649
UTC large
Height (km)
Speed (km/s)
/
Latitude / Longitude
Inclination (degrees)
Orbital Period (minutes)
Azimuth
Elevation
Range (km)
Doppler Factor

Next 0 passes for location: London (51.5072 / 0.1276)

Sorry there are no passes over London.